Location: Unspecified
(47.1121°N, 116.3927°W)
Time: 19:47:01
(UTC-07:00)

Cosmos 1674 - Visible Passes

Search period start: 23 March 2019 00:00
Search period end: 02 April 2019 00:00
Orbit: 495 x 520 km, 82.5° (Epoch: 23 March)

Date Brightness Start Highest point End Pass type
(mag) Time Alt. Az. Time Alt. Az. Time Alt. Az.
23 Mar 2.7 20:48:47 10° NNW 20:52:34 79° W 20:54:24 29° S visible
24 Mar 2.5 20:31:19 10° N 20:35:07 80° E 20:37:53 18° SSE visible
25 Mar 2.6 20:13:53 10° N 20:17:39 61° E 20:21:24 10° SSE visible
25 Mar 5.9 21:51:38 10° WNW 21:52:39 11° W 21:53:40 10° W visible
26 Mar 2.9 19:56:28 10° N 20:00:09 46° ENE 20:03:49 10° SSE visible
26 Mar 5.7 21:33:17 10° NW 21:35:17 14° W 21:37:18 10° WSW visible
27 Mar 3.3 19:39:07 10° N 19:42:39 36° ENE 19:46:11 10° SE visible
27 Mar 5.5 21:15:21 10° NW 21:17:56 18° W 21:20:30 10° SW visible
28 Mar 5.2 20:57:34 10° NW 21:00:32 22° W 21:03:32 10° SW visible
29 Mar 4.8 20:39:52 10° NNW 20:43:09 28° W 20:46:25 10° SSW visible
30 Mar 4.4 20:22:14 10° NNW 20:25:44 36° W 20:29:15 10° SSW visible
31 Mar 3.9 20:04:38 10° NNW 20:08:19 46° W 20:11:59 10° SSW visible
01 Apr 3.3 19:47:07 10° NNW 19:50:52 61° W 19:54:39 10° S visible
